STARLINK-36750

Last updated on Tue Mar 10 2026 00:02:05 GMT+0000 (Coordinated Universal Time)

1 67695U 26025C 26068.58335648 .00130611 00000+0 86583-3 0 9996 2 67695 97.2838 180.2287 0001430 104.6394 50.1596 15.75119933 5842
UTC large
Height (km)
Speed (km/s)
/
Latitude / Longitude
Inclination (degrees)
Orbital Period (minutes)
Azimuth
Elevation
Range (km)
Doppler Factor

Next 0 passes for location: London (51.5072 / 0.1276)

Sorry there are no passes over London.